Weather History for Rickenbacker, OH

Change the Weather History Date:

Monday, November 4, 2013

  Actual Average Record
Temperature  
Mean Temperature 46 °F -  
Max Temperature 57 °F 56 °F 80 °F (2003)
Min Temperature 36 °F 37 °F 23 °F (2006)
Degree Days  
Heating Degree Days 18    
Moisture  
Dew Point 32 °F    
Average Humidity 57    
Maximum Humidity 76    
Minimum Humidity 36    
Precipitation  
Precipitation 0.00 in - - ()
Sea Level Pressure  
Sea Level Pressure 30.39 in    
Wind  
Wind Speed 7 mph (ESE)    
Max Wind Speed 10 mph    
Max Gust Speed -    
Visibility 10 miles    
Events      
Averages and records for this station are not official NWS values.
T = Trace of Precipitation, MM = Missing Value Source: NWS Daily Summary

Daily Weather History Graph

Daily Weather History Graph

Search for Another Location

Airport:

Trip Planner

Search our weather history database for the weather conditions in past years. The results will help you decide how hot, cold, wet, or windy it might be!

Date:

Astronomy

Nov. 04, 2013 Rise Set
Actual Time 7:04 AM EST 5:25 PM EST
Civil Twilight 6:35 AM EST 5:54 PM EST
Nautical Twilight 6:03 AM EST 6:26 PM EST
Astronomical Twilight 5:32 AM EST 6:57 PM EST
Moon 8:13 AM EST (11/4) 6:29 PM EST (11/4)
Length of Visible Light 11h 18m
Length of Day
10h 21m
New Moon, 2% of the Moon is Illuminated
Nov 4
New Moon
Nov 10
First Quarter
Nov 17
Full
Nov 25
Last Quarter
Dec 2
New

Hourly Weather History & Observations

Time (EST) Temp. Windchill Dew Point Humidity Pressure Visibility Wind Dir Wind Speed Gust Speed Precip Events Conditions
12:15 AM 40.3 °F 34.9 °F 30.7 °F 69% 30.40 in 10.0 mi East 8.1 mph - N/A   Clear
12:35 AM 40.8 °F 36.2 °F 30.7 °F 67% 30.40 in 10.0 mi East 6.9 mph - N/A   Clear
12:55 AM 40.8 °F 35.0 °F 30.6 °F 67% 30.40 in 10.0 mi East 9.2 mph - N/A   Clear
1:15 AM 40.6 °F 35.4 °F 30.2 °F 66% 30.40 in 10.0 mi East 8.1 mph - N/A   Clear
1:35 AM 40.1 °F 34.1 °F 30.2 °F 68% 30.41 in 10.0 mi East 9.2 mph - N/A   Clear
1:55 AM 39.7 °F 34.3 °F 30.0 °F 68% 30.42 in 10.0 mi East 8.1 mph - N/A   Clear
2:15 AM 39.0 °F 33.4 °F 29.8 °F 70% 30.42 in 10.0 mi East 8.1 mph - N/A   Clear
2:35 AM 38.5 °F 32.7 °F 29.8 °F 71% 30.42 in 10.0 mi East 8.1 mph - N/A   Clear
2:55 AM 37.9 °F 32.1 °F 29.7 °F 72% 30.42 in 10.0 mi ENE 8.1 mph - N/A   Clear
3:15 AM 37.4 °F 31.4 °F 29.7 °F 74% 30.42 in 10.0 mi East 8.1 mph - N/A   Clear
3:35 AM 37.4 °F 31.4 °F 29.5 °F 73% 30.41 in 10.0 mi East 8.1 mph - N/A   Clear
3:55 AM 37.4 °F 31.4 °F 29.3 °F 73% 30.41 in 10.0 mi East 8.1 mph - N/A   Clear
4:15 AM 37.4 °F 30.8 °F 29.3 °F 73% 30.41 in 10.0 mi East 9.2 mph - N/A   Clear
4:35 AM 37.2 °F 31.2 °F 29.3 °F 73% 30.42 in 10.0 mi East 8.1 mph - N/A   Clear
4:55 AM 37.0 °F 31.0 °F 29.3 °F 74% 30.42 in 10.0 mi East 8.1 mph - N/A   Clear
5:15 AM 36.9 °F 31.4 °F 29.1 °F 74% 30.43 in 10.0 mi ENE 6.9 mph - N/A   Clear
5:35 AM 36.0 °F 30.3 °F 29.1 °F 76% 30.44 in 10.0 mi ENE 6.9 mph - N/A   Clear
5:55 AM 36.1 °F 29.3 °F 29.3 °F 76% 30.43 in 10.0 mi ENE 9.2 mph - N/A   Clear
6:15 AM 36.5 °F 29.7 °F 29.1 °F 75% 30.43 in 10.0 mi ENE 9.2 mph - N/A   Clear
6:35 AM 36.5 °F 31.0 °F 28.9 °F 74% 30.44 in 10.0 mi ENE 6.9 mph - N/A   Clear
6:55 AM 36.3 °F 30.8 °F 28.6 °F 74% 30.44 in 10.0 mi ENE 6.9 mph - N/A   Clear
7:15 AM 36.3 °F 30.8 °F 28.4 °F 73% 30.45 in 10.0 mi ENE 6.9 mph - N/A   Clear
7:35 AM 36.3 °F 31.6 °F 28.4 °F 73% 30.44 in 10.0 mi NE 5.8 mph - N/A   Clear
7:55 AM 36.3 °F 33.7 °F 28.6 °F 74% 30.44 in 10.0 mi NE 3.5 mph - N/A   Clear
8:15 AM 38.1 °F 35.7 °F 29.1 °F 70% 30.44 in 10.0 mi East 3.5 mph - N/A   Clear
8:35 AM 40.6 °F 35.4 °F 29.1 °F 64% 30.43 in 10.0 mi East 8.1 mph - N/A   Clear
8:55 AM 41.9 °F 38.2 °F 29.3 °F 61% 30.44 in 10.0 mi ENE 5.8 mph - N/A   Clear
9:15 AM 43.5 °F 38.9 °F 29.5 °F 58% 30.44 in 10.0 mi East 8.1 mph - N/A   Clear
9:35 AM 44.4 °F 39.5 °F 27.1 °F 51% 30.43 in 10.0 mi East 9.2 mph - N/A   Clear
9:55 AM 45.1 °F 40.3 °F 25.9 °F 47% 30.43 in 10.0 mi East 9.2 mph - N/A   Clear
10:15 AM 45.7 °F 41.5 °F 25.9 °F 46% 30.43 in 10.0 mi ESE 8.1 mph - N/A   Clear
10:35 AM 46.8 °F - 26.4 °F 45% 30.43 in 10.0 mi ESE 8.1 mph - N/A   Clear
10:55 AM 48.0 °F - 26.4 °F 43% 30.44 in 10.0 mi ESE 5.8 mph - N/A   Clear
11:15 AM 49.8 °F - 27.7 °F 42% 30.42 in 10.0 mi SE 10.4 mph - N/A   Clear
11:35 AM 51.1 °F - 27.7 °F 40% 30.40 in 10.0 mi ESE 9.2 mph - N/A   Clear
11:55 AM 51.1 °F - 28.0 °F 41% 30.41 in 10.0 mi SE 9.2 mph - N/A   Clear
12:15 PM 52.5 °F - 28.6 °F 40% 30.39 in 10.0 mi SE 6.9 mph - N/A   Clear
12:35 PM 53.6 °F - 29.1 °F 39% 30.38 in 10.0 mi SE 8.1 mph - N/A   Clear
12:55 PM 54.0 °F - 29.3 °F 39% 30.36 in 10.0 mi ESE 8.1 mph - N/A   Clear
1:15 PM 54.7 °F - 29.7 °F 38% 30.36 in 10.0 mi SSE 6.9 mph - N/A   Clear
1:35 PM 55.9 °F - 29.3 °F 36% 30.35 in 10.0 mi SSE 8.1 mph - N/A   Clear
1:55 PM 55.8 °F - 30.6 °F 38% 30.34 in 10.0 mi SSE 6.9 mph - N/A   Clear
2:15 PM 55.8 °F - 31.3 °F 39% 30.34 in 10.0 mi SSE 8.1 mph - N/A   Clear
2:35 PM 56.3 °F - 31.1 °F 38% 30.34 in 10.0 mi SSE 6.9 mph - N/A   Clear
2:55 PM 56.7 °F - 31.1 °F 38% 30.33 in 10.0 mi SE 8.1 mph - N/A   Clear
3:15 PM 56.8 °F - 32.0 °F 39% 30.33 in 10.0 mi SSE 6.9 mph - N/A   Clear
3:35 PM 57.2 °F - 32.9 °F 40% 30.33 in 10.0 mi South 8.1 mph - N/A   Clear
3:55 PM 56.8 °F - 32.7 °F 40% 30.35 in 10.0 mi South 9.2 mph - N/A   Clear
4:15 PM 55.9 °F - 33.8 °F 43% 30.36 in 10.0 mi South 4.6 mph - N/A   Clear
4:35 PM 55.6 °F - 34.7 °F 45% 30.36 in 10.0 mi South 3.5 mph - N/A   Clear
4:55 PM 55.2 °F - 34.9 °F 46% 30.36 in 10.0 mi Calm Calm - N/A   Clear
5:15 PM 54.9 °F - 34.9 °F 47% 30.36 in 10.0 mi Calm Calm - N/A   Clear
5:35 PM 53.6 °F - 36.1 °F 52% 30.36 in 10.0 mi SE 3.5 mph - N/A   Clear
5:55 PM 52.3 °F - 37.0 °F 56% 30.35 in 10.0 mi ESE 4.6 mph - N/A   Clear
6:15 PM 52.0 °F - 36.9 °F 56% 30.35 in 10.0 mi ESE 3.5 mph - N/A   Clear
6:35 PM 51.8 °F - 36.9 °F 57% 30.35 in 10.0 mi ESE 4.6 mph - N/A   Clear
6:55 PM 51.6 °F - 37.0 °F 58% 30.36 in 10.0 mi Calm Calm - N/A   Clear
7:15 PM 51.6 °F - 36.7 °F 57% 30.36 in 10.0 mi ESE 3.5 mph - N/A   Clear
7:35 PM 51.1 °F - 37.0 °F 59% 30.35 in 10.0 mi ESE 4.6 mph - N/A   Clear
7:55 PM 50.9 °F - 36.7 °F 58% 30.36 in 10.0 mi SSE 4.6 mph - N/A   Clear
8:15 PM 51.1 °F - 36.5 °F 57% 30.36 in 10.0 mi SE 4.6 mph - N/A   Clear
8:35 PM 51.3 °F - 36.3 °F 57% 30.36 in 10.0 mi SSE 5.8 mph - N/A   Clear
8:55 PM 51.1 °F - 36.3 °F 57% 30.37 in 10.0 mi SE 5.8 mph - N/A   Clear
9:15 PM 50.9 °F - 36.3 °F 57% 30.38 in 10.0 mi SSE 5.8 mph - N/A   Clear
9:35 PM 50.5 °F - 36.5 °F 59% 30.38 in 10.0 mi SE 5.8 mph - N/A   Clear
9:55 PM 50.4 °F - 36.5 °F 59% 30.37 in 10.0 mi ESE 4.6 mph - N/A   Clear
10:15 PM 49.8 °F - 36.7 °F 61% 30.37 in 10.0 mi SE 4.6 mph - N/A   Clear
10:35 PM 50.2 °F - 36.7 °F 60% 30.37 in 10.0 mi SE 3.5 mph - N/A   Clear
10:55 PM 50.5 °F - 36.3 °F 58% 30.36 in 10.0 mi SSE 4.6 mph - N/A   Clear
11:15 PM 50.0 °F - 36.9 °F 61% 30.36 in 10.0 mi SSE 3.5 mph - N/A   Scattered Clouds
11:35 PM 50.5 °F - 37.0 °F 60% 30.36 in 10.0 mi SSE 3.5 mph - N/A   Mostly Cloudy
11:55 PM 50.7 °F - 37.0 °F 59% 30.35 in 10.0 mi SE 4.6 mph - N/A   Scattered Clouds